TimeCDT,TemperatureF,Dew PointF,Humidity,Sea Level PressureIn,VisibilityMPH,Wind Direction,Wind SpeedMPH,Gust SpeedMPH,PrecipitationIn,Events,Conditions,WindDirDegrees,DateUTC
12:53 AM,50.0,46.0,86,29.99,10.0,SE,6.9,-,N/A,,Clear,130,2013-10-08 05:53:00
1:53 AM,48.9,45.0,86,29.99,10.0,SE,5.8,-,N/A,,Clear,140,2013-10-08 06:53:00
2:53 AM,50.0,44.1,80,29.97,10.0,SSE,11.5,-,N/A,,Clear,150,2013-10-08 07:53:00
3:53 AM,48.0,44.1,86,29.96,10.0,SSE,9.2,-,N/A,,Clear,160,2013-10-08 08:53:00
4:53 AM,48.0,43.0,83,29.96,10.0,SSE,8.1,-,N/A,,Clear,150,2013-10-08 09:53:00
5:53 AM,48.0,43.0,83,29.95,10.0,SSE,8.1,-,N/A,,Clear,150,2013-10-08 10:53:00
6:53 AM,48.0,43.0,83,29.96,10.0,SSE,6.9,-,N/A,,Clear,160,2013-10-08 11:53:00
7:53 AM,50.0,44.1,80,29.96,10.0,SSE,9.2,-,N/A,,Clear,160,2013-10-08 12:53:00
8:53 AM,53.1,45.0,74,29.95,10.0,SE,10.4,-,N/A,,Clear,140,2013-10-08 13:53:00
9:53 AM,59.0,46.0,62,29.93,10.0,SSE,12.7,-,N/A,,Clear,150,2013-10-08 14:53:00
10:53 AM,64.0,46.9,54,29.92,10.0,SE,9.2,-,N/A,,Clear,140,2013-10-08 15:53:00
11:53 AM,71.1,45.0,39,29.89,10.0,South,13.8,24.2,N/A,,Clear,180,2013-10-08 16:53:00
12:53 PM,73.0,46.0,38,29.87,10.0,South,18.4,24.2,N/A,,Clear,170,2013-10-08 17:53:00
1:53 PM,75.0,46.0,36,29.86,10.0,South,13.8,23.0,N/A,,Clear,170,2013-10-08 18:53:00
2:53 PM,77.0,44.1,31,29.85,10.0,South,23.0,31.1,N/A,,Clear,170,2013-10-08 19:53:00
3:53 PM,75.9,44.1,32,29.84,10.0,South,18.4,26.5,N/A,,Clear,170,2013-10-08 20:53:00
4:53 PM,75.0,43.0,32,29.84,10.0,South,15.0,23.0,N/A,,Clear,170,2013-10-08 21:53:00
5:53 PM,72.0,45.0,38,29.84,10.0,SSE,13.8,21.9,N/A,,Clear,160,2013-10-08 22:53:00
6:53 PM,70.0,45.0,41,29.84,10.0,SSE,13.8,-,N/A,,Clear,160,2013-10-08 23:53:00
7:53 PM,69.1,45.0,42,29.85,10.0,SSE,16.1,24.2,N/A,,Clear,160,2013-10-09 00:53:00
8:53 PM,68.0,44.1,42,29.87,10.0,South,15.0,-,N/A,,Clear,170,2013-10-09 01:53:00
9:53 PM,66.9,45.0,45,29.91,10.0,South,9.2,-,N/A,,Clear,180,2013-10-09 02:53:00
10:53 PM,63.0,46.0,54,29.93,10.0,SSE,6.9,-,N/A,,Clear,160,2013-10-09 03:53:00
11:53 PM,63.0,46.0,54,29.94,10.0,South,9.2,-,N/A,,Clear,170,2013-10-09 04:53:00